TimeEST,TemperatureF,Dew PointF,Humidity,Sea Level PressureIn,VisibilityMPH,Wind Direction,Wind SpeedMPH,Gust SpeedMPH,PrecipitationIn,Events,Conditions,WindDirDegrees,DateUTC
12:12 AM,33.8,33.8,100,29.86,3.0,North,9.2,-,N/A,,Overcast,10,2013-02-24 05:12:00
12:53 AM,34.0,33.1,96,29.85,4.0,North,10.4,-,N/A,,Overcast,10,2013-02-24 05:53:00
1:53 AM,34.0,33.1,96,29.82,5.0,North,10.4,-,N/A,,Overcast,360,2013-02-24 06:53:00
2:53 AM,35.1,33.1,92,29.81,4.0,North,8.1,-,N/A,,Overcast,360,2013-02-24 07:53:00
3:53 AM,35.1,33.1,92,29.78,5.0,North,11.5,-,0.00,,Overcast,360,2013-02-24 08:53:00
4:53 AM,35.1,33.1,92,29.79,10.0,NNW,9.2,-,0.00,,Overcast,340,2013-02-24 09:53:00
5:53 AM,35.1,34.0,96,29.79,6.0,North,6.9,-,N/A,,Overcast,360,2013-02-24 10:53:00
6:53 AM,35.1,33.1,92,29.77,10.0,North,11.5,-,N/A,,Overcast,10,2013-02-24 11:53:00
7:53 AM,36.0,34.0,93,29.77,10.0,North,8.1,-,N/A,,Overcast,350,2013-02-24 12:53:00
8:53 AM,36.0,34.0,93,29.75,8.0,North,10.4,-,N/A,,Overcast,360,2013-02-24 13:53:00
9:53 AM,37.0,34.0,89,29.76,10.0,NNW,10.4,-,N/A,,Overcast,340,2013-02-24 14:53:00
10:53 AM,37.0,35.1,93,29.75,5.0,NNW,10.4,-,N/A,,Overcast,340,2013-02-24 15:53:00
11:53 AM,37.9,35.1,89,29.74,3.0,NNW,9.2,-,N/A,,Overcast,340,2013-02-24 16:53:00
12:53 PM,37.9,35.1,89,29.73,6.0,NNW,10.4,-,N/A,,Overcast,340,2013-02-24 17:53:00
1:53 PM,39.0,34.0,82,29.73,10.0,NNW,12.7,-,0.00,,Overcast,330,2013-02-24 18:53:00
2:07 PM,39.2,35.6,87,29.73,5.0,NNW,11.5,19.6,0.00,Rain,Light Rain,340,2013-02-24 19:07:00
2:31 PM,39.2,35.6,87,29.73,7.0,NNW,13.8,-,0.00,,Overcast,340,2013-02-24 19:31:00
2:53 PM,39.0,34.0,82,29.73,10.0,NNE,11.5,-,0.00,,Overcast,20,2013-02-24 19:53:00
3:15 PM,39.2,33.8,81,29.74,10.0,North,11.5,-,N/A,,Overcast,360,2013-02-24 20:15:00
3:53 PM,39.0,32.0,76,29.75,10.0,North,11.5,-,N/A,,Overcast,10,2013-02-24 20:53:00
4:42 PM,39.2,32.0,75,29.76,10.0,NNW,9.2,-,N/A,,Overcast,340,2013-02-24 21:42:00
4:53 PM,39.0,32.0,76,29.77,10.0,NNW,8.1,-,N/A,,Overcast,340,2013-02-24 21:53:00
5:53 PM,37.0,32.0,82,29.80,8.0,NNW,11.5,21.9,0.00,Rain,Light Rain,330,2013-02-24 22:53:00
6:04 PM,37.4,30.2,75,29.81,10.0,NW,9.2,-,0.00,,Overcast,320,2013-02-24 23:04:00
6:53 PM,37.0,28.9,73,29.83,10.0,North,6.9,-,0.00,,Overcast,350,2013-02-24 23:53:00
7:53 PM,35.1,28.9,78,29.87,2.5,NNW,6.9,-,0.00,Snow,Light Snow,340,2013-02-25 00:53:00
8:35 PM,33.8,30.2,87,29.89,3.0,NW,5.8,-,0.00,Snow,Light Snow,320,2013-02-25 01:35:00
8:53 PM,34.0,30.0,85,29.90,3.0,NW,6.9,-,0.00,Snow,Light Snow,320,2013-02-25 01:53:00
9:02 PM,33.8,30.2,87,29.90,2.5,NW,5.8,-,0.00,Snow,Light Snow,310,2013-02-25 02:02:00
9:18 PM,33.8,28.4,81,29.90,4.0,NNW,5.8,-,0.00,Snow,Light Snow,330,2013-02-25 02:18:00
9:53 PM,35.1,28.0,76,29.90,10.0,NNW,4.6,-,0.00,,Overcast,330,2013-02-25 02:53:00
10:53 PM,35.1,27.0,72,29.91,10.0,NNW,8.1,-,N/A,,Overcast,340,2013-02-25 03:53:00
11:53 PM,35.1,27.0,72,29.93,10.0,NW,9.2,-,N/A,,Overcast,320,2013-02-25 04:53:00